Tracking 33200 objects as of 18-Feb-2026
HD Live streaming from Space Station
objects crossing your sky now

ASTROCAST-0402

Track ASTROCAST-0402 now!
10-day predictions
ASTROCAST-0402 is classified as:


NORAD ID: 55109
Int'l Code: 2023-001DE
Perigee: 491.6 km
Apogee: 496.5 km
Inclination: 97.6 °
Period: 94.3 minutes
Semi major axis: 6865 km
RCS: Unknown
Launch date: January 3, 2023
Source: (SWTZ)
Launch site: AIR FORCE EASTERN TEST RANGE (AFETR)

Uplink (MHz):
Downlink (MHz):
Beacon (MHz):
Mode:
Call sign:
Status: Unknown

Your satellite tracking list
Your tracking list is empty




NASA's NSSDC Master Catalog

Two Line Element Set (TLE):
1 55109U 23001DE  26048.74794869  .00008875  00000-0  34479-3 0  9998
2 55109  97.5591 140.3872 0003591 312.1285  47.9648 15.26301707126305
Source of the keplerian elements: AFSPC